Volver al catálogo

OPTUS B1

AUSSAT B1

ActivoComunicacionesGEO
NORAD 22087·PAYLOAD·🇦🇺 Australia

Lanzado Aug 13, 1992 desde Xichang Satellite Launch Center

Loading…

TLE

ActualizadoSource: Space-Track

Época: Sep 14, 2026, 13:49 UTC

1 22087U 92054A   26257.57579435 -.00000164  00000-0  00000-0 0  9998
2 22087  13.0553  23.4255 0009848 140.3977  40.5106  0.99207261135594

Sigue OPTUS B1 en tiempo real con AllMySat

Download on the App Store